Regional Weather Roundup
Issued by NWS Kansas City/Pleasant Hill, MO

Home | Current Version | Previous Version | Text Only | Print | Product List | Glossary On
Versions: 1 2 3 4 5 6 7 8 9 10 11 12 13 14 15 16 17 18 19 20 21 22 23 24 25 26 27 28 29 30 31 32 33 34 35 36 37 38 39 40 41 42 43 44 45 46 47 48 49 50
000
ASUS43 KEAX 250204
RWREAX

WEATHER ROUNDUP FOR EASTERN KANSAS AND NORTHWEST MISSOURI
NATIONAL WEATHER SERVICE KANSAS CITY/PLEASANT HILL MO
800 PM CST WED DEC 24 2014

KSZ040-057-103>105-MOZ028-029-037-043-250300-
...KANSAS CITY METROPOLITAN AREA...

CITY           SKY/WX    TMP DP  RH WIND       PRES   REMARKS
K.C. INTL      CLOUDY    33  29  85 W13       29.84R WCI  24
K.C. DOWNTOWN  CLOUDY    36  29  75 W8        29.85S WCI  30
LEES SUMMIT    CLOUDY    35  28  75 SW14      29.85S WCI  26
OLATHE - IXD   CLOUDY    33  29  85 SW13      29.87R WCI  24
OLATHE - OJC   CLOUDY    34  30  85 SW12      29.85R WCI  25
LAWRENCE       CLOUDY    34  28  79 SW8       29.87R WCI  27

$$

MOZ001>008-011>017-020>025-030>033-038>040-044>046-053-054-250300-
...NORTHERN AND CENTRAL MISSOURI...

CITY           SKY/WX    TMP DP  RH WIND       PRES   REMARKS
ST. JOSEPH     CLOUDY    33  29  85 SW13      29.83F WCI  24
MOSBY          CLOUDY    34  30  86 W10       29.85S WCI  26
WARRENSBURG    CLOUDY    34  30  86 SW9       29.87R WCI  26
WHITEMAN AFB   NOT AVBL
CLINTON        CLOUDY    36  32  87 W10       29.89R WCI  28
SEDALIA        CLOUDY    37  31  78 W13       29.86R WCI  29
WARSAW         NOT AVBL
MARSHALL       CLOUDY    39  34  81 W10       29.85R WCI  32
CHILLICOTHE      N/A     35  29  78 W6        29.82S WCI  30
MOBERLY        CLOUDY    36  30  80 W13       29.81  WCI  27
KIRKSVILLE     CLOUDY    34  31  88 W15G22    29.79R WCI  24

$$

MOZ041-047>049-056>058-063>065-088>090-097-250300-
...EASTERN AND SOUTHERN MISSOURI...

CITY           SKY/WX    TMP DP  RH WIND       PRES   REMARKS
ST. LOUIS INTL CLOUDY    39  33  79 W10       29.81R WCI  32
SPIRIT OF STL  LGT RAIN  37  34  89 W5        29.81R WCI  33
COLUMBIA       CLOUDY    37  33  85 W10       29.82R WCI  30
JEFFERSON CITY CLOUDY    38  32  79 W9        29.85R WCI  31
ROLLA          CLOUDY    35  32  88 W10       29.83R WCI  27
LEBANON        CLOUDY    36  30  80 W16G23    29.86S WCI  26
OSAGE BEACH    CLOUDY    37  30  75 W7        29.86R WCI  32
SPRINGFIELD    CLOUDY    36  30  79 W12       29.90R WCI  28
BRANSON        CLOUDY    37  32  81 W18       29.92R WCI  27
NEVADA         CLOUDY    36  30  80 SW7       29.92S WCI  30
JOPLIN         CLEAR     33  28  81 SW5       29.93S WCI  29
WEST PLAINS    CLOUDY    37  30  75 W8        29.88R WCI  31

$$

IAZ060-094-KSZ022-034>040-054-083-096-NEZ052-066-093-250300-
...KANSAS...SOUTHEAST NEBRASKA AND IOWA...

CITY           SKY/WX    TMP DP  RH WIND       PRES   REMARKS
TOPEKA         CLEAR     33  28  81 S3        29.86S
MANHATTAN      CLEAR     27  24  89 CALM      29.81F
EMPORIA        CLEAR     28  26  92 S9        29.85F WCI  19
CHANUTE        CLEAR     29  27  92 S6        29.89F WCI  23
WICHITA        PTCLDY    31  23  72 S8        29.85F WCI  23
OMAHA          PTCLDY    30  26  85 S9        29.74F WCI  22
LINCOLN        CLEAR     28  26  92 S8        29.72F WCI  20
FALLS CITY     PTCLDY    30  26  85 S7        29.79F WCI  23
LAMONI         CLOUDY    31  28  89 W14       29.77S WCI  21
DES MOINES     FLURRIES  33  28  81 W15       29.74F WCI  23

$$



USA.gov is the U.S. government's official web portal to all federal, state and local government web resources and services.